SBONWEB Weather Reports


time (UTC)temp
C
wind
direction
speed
KPH
gust
KPH
rain 1hr
cm
rain 24hr
cm
rain mn
cm
humidity
%
barometer
mb
20260504173604 18 179 1.6 3.2 0.00 0.00 0.00 56 1016.0
20260504172703 18 170 1.6 4.8 0.00 0.00 0.00 51 1016.0
20260504171803 18 176 1.6 4.8 0.00 0.00 0.00 49 1016.0
20260504171117 18 170 1.6 4.8 0.00 0.00 0.00 50 1016.0
20260504170217 18 148 3.2 6.4 0.00 0.00 0.00 50 1016.0
20260504150903 20 151 4.8 11.3 0.00 0.00 0.00 47 1016.6
20260504140903 20 176 6.4 12.9 0.00 0.00 0.00 49 1017.0
20260504130217 19 124 4.8 11.3 0.00 0.00 0.00 46 1017.7
20260504100218 18 172 3.2 9.7 0.00 0.00 0.00 48 1018.6
20260504081803 17 158 3.2 6.4 0.00 0.00 0.00 47 1018.4
20260504080903 17 131 1.6 6.4 0.00 0.00 0.00 47 1018.4
20260504080217 17 100 1.6 3.2 0.00 0.00 0.00 46 1018.4
20260504050004 11 360 1.6 3.2 0.00 0.00 0.00 71 1017.3
20260504045403 11 360 1.6 3.2 0.00 0.00 0.00 70 1017.2
20260504044504 11 359 1.6 4.8 0.00 0.00 0.00 71 1017.2
20260504043604 11 360 1.6 3.2 0.00 0.00 0.00 71 1017.1
20260504042703 11 360 1.6 4.8 0.00 0.00 0.00 71 1016.9
20260504041804 10 360 0.0 4.8 0.00 0.00 0.00 71 1017.1
20260504040903 10 0 0.0 0.0 0.00 0.00 0.00 72 1017.1
20260504040004 10 0 0.0 0.0 0.00 0.00 0.00 71 1017.1
20260504035403 10 0 0.0 0.0 0.00 0.00 0.00 70 1017.0
20260504034503 11 0 0.0 0.0 0.00 0.00 0.00 70 1017.1
20260504033603 11 0 0.0 0.0 0.00 0.00 0.00 68 1017.1
20260504032703 11 0 0.0 0.0 0.00 0.00 0.00 68 1016.9
20260504032017 11 0 0.0 0.0 0.00 0.00 0.00 68 1016.9
20260504030904 11 0 0.0 0.0 0.00 0.00 0.00 68 1017.1
20260504030003 11 0 0.0 0.0 0.00 0.00 0.00 69 1017.0
20260504025403 11 0 0.0 0.0 0.00 0.00 0.00 68 1017.1
20260504024504 11 0 0.0 0.0 0.00 0.00 0.00 67 1017.2
20260504023603 11 0 0.0 0.0 0.00 0.00 0.00 67 1017.2
20260504022703 11 0 0.0 0.0 0.00 0.00 0.00 68 1017.2
20260504021803 11 0 0.0 0.0 0.00 0.00 0.00 67 1017.2
20260504020903 11 0 0.0 0.0 0.00 0.00 0.00 68 1017.1
20260504020003 11 0 0.0 0.0 0.00 0.00 0.00 67 1017.1
20260504015403 12 0 0.0 0.0 0.00 0.00 0.00 67 1017.2
20260504014503 12 0 0.0 0.0 0.00 0.00 0.00 67 1017.2
20260504013603 12 0 0.0 0.0 0.00 0.00 0.00 66 1017.3
20260504012703 12 0 0.0 0.0 0.00 0.00 0.00 59 1017.2
20260504011803 13 0 0.0 0.0 0.00 0.00 0.00 61 1017.2
20260504010903 13 0 0.0 0.0 0.00 0.00 0.00 63 1017.2
20260504010003 13 0 0.0 0.0 0.00 0.00 0.00 63 1017.3
20260504005403 13 0 0.0 0.0 0.00 0.00 0.00 64 1017.2
20260504004503 13 0 0.0 0.0 0.00 0.00 0.00 64 1017.3
20260504003603 13 0 0.0 0.0 0.00 0.00 0.00 66 1017.4
20260504002703 13 0 0.0 0.0 0.00 0.00 0.00 65 1017.5
20260504001803 13 217 0.0 4.8 0.00 0.00 0.00 68 1017.6
20260504000903 13 222 0.0 1.6 0.00 0.00 0.00 68 1017.7
20260504000003 13 0 0.0 0.0 0.00 0.00 0.00 69 1017.7
20260503235618 13 0 0.0 0.0 0.00 0.00 0.00 69 1017.7
20260503234503 13 0 0.0 0.0 0.00 0.00 0.00 69 1017.9
20260503233603 13 0 0.0 0.0 0.00 0.00 0.00 69 1018.0
20260503232703 13 0 0.0 0.0 0.00 0.00 0.00 69 1018.0
20260503231803 13 0 0.0 0.0 0.00 0.00 0.00 69 1018.0
20260503230903 13 0 0.0 0.0 0.00 0.00 0.00 69 1018.1
20260503230003 13 0 0.0 0.0 0.00 0.00 0.00 70 1018.2
20260503225403 13 0 0.0 0.0 0.00 0.00 0.00 71 1018.1
20260503224503 13 204 0.0 1.6 0.00 0.00 0.00 71 1018.2
20260503223603 13 203 0.0 6.4 0.00 0.00 0.00 70 1018.2
20260503222918 13 209 0.0 1.6 0.00 0.00 0.00 70 1018.2
20260503221803 13 209 0.0 1.6 0.00 0.00 0.00 68 1018.2
20260503220903 14 209 1.6 1.6 0.00 0.00 0.00 67 1018.1
20260503220218 14 205 1.6 4.8 0.00 0.00 0.00 66 1018.0
20260503215403 14 194 1.6 4.8 0.00 0.00 0.00 65 1018.1
20260503214503 14 190 1.6 3.2 0.00 0.00 0.00 65 1018.1
20260503213603 15 181 1.6 4.8 0.00 0.00 0.00 65 1018.0
20260503212703 15 201 1.6 3.2 0.00 0.00 0.00 64 1017.9
20260503210903 15 184 1.6 4.8 0.00 0.00 0.00 62 1017.9
20260503210003 15 187 1.6 6.4 0.00 0.00 0.00 62 1017.9
20260503205403 15 188 1.6 6.4 0.00 0.00 0.00 62 1017.9
20260503204719 15 183 1.6 4.8 0.00 0.00 0.00 61 1017.9
20260503203603 15 162 0.0 6.4 0.00 0.00 0.00 61 1017.9
20260503202703 15 154 0.0 3.2 0.00 0.00 0.00 61 1017.9
20260503201804 15 0 0.0 0.0 0.00 0.00 0.00 61 1017.7
20260503200903 15 0 0.0 0.0 0.00 0.00 0.00 59 1017.7
20260503200003 15 176 1.6 1.6 0.00 0.00 0.00 62 1017.7
20260503195403 15 176 1.6 3.2 0.00 0.00 0.00 65 1017.7
20260503194504 15 176 0.0 3.2 0.00 0.00 0.00 65 1017.6
20260503193818 15 176 1.6 1.6 0.00 0.00 0.00 63 1017.5
20260503192703 16 157 0.0 3.2 0.00 0.00 0.00 60 1017.5
20260503191803 17 134 0.0 1.6 0.00 0.00 0.00 58 1017.3
20260503190903 17 134 0.0 1.6 0.00 0.00 0.00 56 1017.2
20260503190003 17 133 0.0 3.2 0.00 0.00 0.00 55 1017.2
20260503185617 17 134 0.0 3.2 0.00 0.00 0.00 54 1017.1
20260503184718 17 128 3.2 8.0 0.00 0.00 0.00 57 1017.2
20260503183603 17 142 0.0 12.9 0.00 0.00 0.00 55 1017.2
20260503182703 17 194 0.0 3.2 0.00 0.00 0.00 60 1017.1
20260503182018 18 194 0.0 3.2 0.00 0.00 0.00 58 1017.0
20260503180903 18 194 0.0 1.6 0.00 0.00 0.00 59 1017.1
20260503180003 18 193 0.0 3.2 0.00 0.00 0.00 59 1017.0
20260503175616 18 193 1.6 3.2 0.00 0.00 0.00 59 1017.0
20260503174503 19 191 1.6 3.2 0.00 0.00 0.00 58 1017.0